Regional Weather Roundup
Issued by NWS

Home | Current Version | Previous Version | Text Only | Print | Product List | Glossary Off
Versions: 1 2 3 4 5 6 7 8 9 10 11 12 13 14 15 16 17 18 19 20 21 22 23 24 25 26 27 28 29 30 31 32 33 34 35 36 37 38 39 40 41 42 43 44 45 46 47 48 49 50

000
ASUS43 KMPX 202101
RWRMN
WEATHER ROUNDUP FOR MINNESOTA
NATIONAL WEATHER SERVICE TWIN CITIES/CHANHASSEN MN
400 PM CDT SUN MAY 20 2018


NOTE: "FAIR" INDICATES FEW OR NO CLOUDS BELOW 12,000 FEET WITH NO
SIGNIFICANT WEATHER AND/OR OBSTRUCTIONS TO VISIBILITY. N/A MEANS
CURRENT SKY AND/OR WEATHER CONDITIONS ARE NOT AVAILABLE.

MNZ060>063-068>070-202200-
   Twin Cities Metro

CITY           SKY/WX    TMP DP  RH WIND       PRES   REMARKS
TWIN CITIES    FAIR      72  33  24 E9G22     30.16F
ST PAUL        FAIR      70  34  26 E10       30.16F
CRYSTAL        FAIR      72  27  18 NE9       30.15F
BLAINE         MOSUNNY   72  27  18 NE6       30.17F
LAKEVILLE      FAIR      70  39  32 E9        30.16F
EDEN PRAIRIE   FAIR      71  35  26 NE13      30.15F
SOUTH ST PAUL  FAIR      70  31  23 NE10      30.16F
LAKE ELMO      FAIR      70  34  26 NE13      30.18F
$$
MNZ001>005-007-008-013>017-022>024-027-028-202200-
   Northwest Minnesota

CITY           SKY/WX    TMP DP  RH WIND       PRES   REMARKS
BEMIDJI        FAIR      71  32  24 E8        30.21F
HALLOCK        FAIR      75  23  14 SW3       30.16F
ROSEAU         FAIR      72  36  26 SW8       30.18F
WARROAD        FAIR      72  39  30 SW5       30.19F
THIEF RVR FALL FAIR      71  30  21 CALM      30.20F
CROOKSTON      FAIR      72  30  21 W3        30.19F
FOSSTON        FAIR      72  28  20 NW6       30.21F
DETROIT LAKES  FAIR      68  32  26 E8        30.21F
MOORHEAD       FAIR      72  32  23 NE3       30.19F
PARK RAPIDS    FAIR      70  31  23 VRB5      30.20F
MAHNOMEN       FAIR      68  35  30 CALM      30.21F
$$
MNZ006-009>011-018-025>026-202200-
   North Central Minnesota

CITY           SKY/WX    TMP DP  RH WIND       PRES   REMARKS
BAUDETTE       FAIR      74  31  20 CALM      30.18F
FLAG ISLAND    FAIR      59  41  51 S16       30.16F
INTL FALLS     FAIR      73  29  19 CALM      30.18F
WASKISH        CLOUDY    70  36  28 W7        30.21F
BIG FORK       FAIR      73  34  23 CALM      30.20F
LONGVILLE      FAIR      70  30  23 N6        30.21F
GRAND RAPIDS   FAIR      68  34  28 VRB5      30.23F
CRANE LAKE     FAIR      70  27  19 CALM      30.20F
ORR            FAIR      72  23  16 NW3       30.17F
COOK           FAIR      70  28  21 CALM      30.21F
WALKER         FAIR      66  29  25 E6        30.23F
$$
MNZ012-019>021-037-202200-
   Northeast Minnesota

CITY           SKY/WX    TMP DP  RH WIND       PRES   REMARKS
DULUTH         FAIR      66  30  26 SE8       30.22F
ELY            FAIR      70  27  19 W7        30.20F
HIBBING        FAIR      68  32  26 CALM      30.21F
EVELETH        FAIR     N/A N/A N/A SW3       30.22F
DULUTH HARBOR  FAIR      55  43  62 NE3       30.23F
TWO HARBORS    FAIR      72  41  33 SE5       30.20F
SILVER BAY     FAIR      66  32  28 S7        30.20F
GRAND MARAIS     N/A     49  36  61 SW13      30.21F
G MARAIS ARPRT FAIR      61  27  27 S9        30.23S
$$
MNZ029>031-032-039>041-046>048-054>057-064-202200-
   West Central Minnesota

CITY           SKY/WX    TMP DP  RH WIND       PRES   REMARKS
FERGUS FALLS   FAIR      70  36  28 E8        30.14F
WHEATON        SUNNY     72  21  15 NE10      30.18F
MORRIS         SUNNY     72  28  20 E10G17    30.17F
ALEXANDRIA     FAIR      72  31  22 NE13      30.19F
ELBOW LAKE     FAIR      69  33  26 SE8       30.18F
WADENA         FAIR      70  36  28 NE8       30.19F
GLENWOOD       FAIR      70  28  21 NE10G16   30.18F
APPLETON       SUNNY     72  16  12 E13G20    30.15F
BENSON         SUNNY     72  21  15 E6G16     30.17F
ORTONVILLE     SUNNY     70  21  16 E6G16     30.16F
MADISON        MOSUNNY   73  23  15 NE13      30.14F
WILLMAR        FAIR      70  27  19 NE14G20   30.18F
$$
MNZ033>034-036-042>043-049>051-058-059-202200-
   Central Minnesota

CITY           SKY/WX    TMP DP  RH WIND       PRES   REMARKS
ST CLOUD       FAIR      71  25  17 NE10      30.18F
SAUK CENTRE    FAIR      68  28  22 E9        30.18F
PAYNESVILLE    FAIR      69  26  19 E12       30.18F
AITKIN         FAIR      66  30  26 NE8       30.19F
PINE RIVER     FAIR      66  36  32 CALM      30.23F
BRAINERD       FAIR      70  31  23 VRB5      30.20F
STAPLES        FAIR      70  27  19 NE6       30.20F
LONG PRAIRIE   FAIR      68  32  26 NE12G24   30.19F
LITTLE FALLS     N/A    N/A N/A N/A NE3         N/A
LITCHFIELD     FAIR      72  28  20 NE8G20    30.17F
BUFFALO        FAIR      71  24  17 N12       30.18F
MAPLE LAKE     FAIR      71  31  22 NE8G17    30.18F
HUTCHINSON     FAIR      72  30  21 NE14G20   30.16F
$$
MNZ037-044-045-052-053-202200-
   East Central Minnesota

CITY           SKY/WX    TMP DP  RH WIND       PRES   REMARKS
PRINCETON      FAIR      72  25  17 NE6       30.18F
MORA           FAIR      68  32  26 E5        30.20F
CAMBRIDGE      FAIR      72  43  35 NE5       30.18F
RUSH CITY      FAIR      69  29  22 E5        30.19F
MOOSE LAKE     FAIR      70  36  28 NE8       30.19F
HINCKLEY       FAIR      70  30  23 E7        30.18F
CLOQUET        FAIR      66  25  20 E10       30.22F
MCGREGOR       FAIR      68  32  26 E7        30.21F
$$
MNZ071>073-080-081-089-090-097-098-202200-
   Southwest Minnesota

CITY           SKY/WX    TMP DP  RH WIND       PRES   REMARKS
MONTEVIDEO     MOSUNNY   73  21  14 SE17      30.14F
GRANITE FALLS  SUNNY     75  28  17 E10G20    30.15F
CANBY          CLOUDY    71  23  16 E12       30.15F
MARSHALL       CLOUDY    71  40  32 SE13G21   30.13F
REDWOOD FALLS  SUNNY     71  48  43 E13G21    30.13F
OLIVIA         MOSUNNY   72  30  21 E8        30.15S
PIPESTONE      CLOUDY    63  45  51 E9G16     30.14F
WINDOM         PTSUNNY   63  39  42 E8        30.15F
JACKSON        CLOUDY    63  48  59 E8        30.15F
TRACY          CLOUDY    67  50  54 E14       30.14S
SLAYTON        CLOUDY    62  46  55 E12       30.16F
$$
MNZ065>067-074>077-082>085-091>093-202200-
   South Central Minnesota

CITY           SKY/WX    TMP DP  RH WIND       PRES   REMARKS
MANKATO        FAIR      66  51  58 E13       30.15F
NEW ULM        CLOUDY    66  48  52 E12       30.14F
ST JAMES       CLOUDY    64  48  55 E9        30.16F
FAIRMONT       CLOUDY    62  51  67 E13       30.15F
GLENCOE        FAIR      70  38  31 NE7       30.15F
FARIBAULT      FAIR      70  48  46 CALM      30.16F
OWATONNA       FAIR      66  52  59 E9        30.16F
WASECA         FAIR      63  50  63 E9G18     30.18S
ALBERT LEA     CLOUDY    55  46  71 E8        30.17F
$$
MNZ078>079-086>088-094>096-202200-
   Southeast Minnesota

CITY           SKY/WX    TMP DP  RH WIND       PRES   REMARKS
ROCHESTER      CLOUDY    57  50  77 E9        30.20F
RED WING       FAIR      72  34  25 S7        30.15F
STANTON        FAIR      70  44  39 E12       30.15F
DODGE CENTER   PTSUNNY   61  46  59 E14       30.18S
WINONA         CLOUDY    59  46  63 SE8       30.17F
AUSTIN         CLOUDY    54  48  82 E10       30.17F
PRESTON        CLOUDY    50  47  90 E8        30.19F FOG
$$
ABBREVIATIONS USED IN REMARKS
   TC - TEMPERATURES IN CELSIUS
  WCI - WIND CHILL INDEX
   HX - HEAT INDEX
  VSB - VISIBILITY
$$




USA.gov is the U.S. government's official web portal to all federal, state and local government web resources and services.